Temperature
-3 -3 -3 -3 -3 -3 -4 -3 -3 -2 -3 -3 -3 -5 -4 -4 -4 -5 -5 -5 -5 -5 -5 -4 -4 -4 -4 -4 -4 -3 -3 -3 -3 -3 -3 -3 -2 -2 -2 -2 -2 -2 -2 -2
-3 -3 -4 -3 -3 -3 -3 -4 -4 -4 -4 -4 -4 -5 -5 -5 -5 -6 -5 -5 -6 -5 -5 -5 -5 -4 -4 -4 -4 -4 -3 -3 -3 -3 -3 -3 -3 -2 -2 -2 -2 -2 -2 -2
-3 -4 -3 -3 -3 -4 -4 -5 -5 -4 -4 -5 -6 -6 -6 -6 -6 -6 -6 -6 -6 -6 -6 -6 -5 -5 -5 -5 -4 -4 -4 -4 -4 -3 -3 -3 -3 -3 -3 -2 -2 -2 -2 -2
-4 -4 -3 -2 -5 -5 -5 -6 -6 -6 -6 -6 -6 -6 -6 -6 -6 -6 -6 -6 -6 -6 -6 -6 -6 -5 -5 -5 -5 -5 -4 -4 -4 -4 -4 -4 -4 -3 -3 -3 -3 -3 -3 -3
-4 -5 -4 -4 -5 -6 -6 -5 -6 -6 -6 -6 -7 -7 -6 -6 -6 -7 -7 -7 -7 -7 -7 -7 -6 -6 -6 -6 -5 -5 -5 -5 -5 -5 -4 -4 -4 -4 -4 -4 -3 -3 -3 -3
-5 -4 -4 -4 -6 -6 -6 -5 -6 -7 -7 -7 -8 -7 -7 -7 -7 -7 -7 -8 -8 -8 -7 -7 -7 -7 -6 -6 -6 -6 -6 -5 -5 -5 -5 -5 -5 -5 -4 -4 -4 -4 -4 -4
-6 -5 -5 -6 -7 -6 -5 -5 -6 -6 -7 -8 -8 -8 -8 -8 -8 -8 -8 -8 -8 -8 -8 -8 -8 -7 -7 -7 -7 -6 -6 -6 -6 -5 -5 -5 -5 -5 -5 -5 -5 -5 -5 -5
-6 -6 -5 -6 -7 -6 -6 -6 -6 -7 -7 -8 -8 -8 -8 -8 -8 -8 -8 -8 -9 -9 -8 -8 -8 -8 -7 -7 -7 -7 -7 -6 -6 -6 -6 -6 -6 -6 -6 -6 -6 -5 -5 -5
-6 -5 -6 -7 -7 -6 -7 -7 -7 -7 -7 -8 -8 -9 -9 -9 -9 -9 -9 -9 -9 -9 -9 -8 -8 -8 -8 -8 -8 -7 -7 -7 -7 -7 -7 -7 -7 -7 -6 -6 -6 -6 -6 -6
-7 -7 -7 -7 -7 -7 -7 -7 -7 -8 -8 -8 -9 -9 -9 -10 -10 -10 -10 -10 -10 -9 -9 -9 -9 -9 -9 -9 -8 -8 -8 -7 -7 -7 -7 -7 -7 -7 -7 -7 -7 -7 -7 -7
-8 -8 -8 -7 -7 -8 -8 -8 -8 -8 -9 -9 -9 -10 -10 -10 -10 -10 -10 -10 -10 -10 -10 -10 -9 -9 -9 -9 -9 -9 -8 -8 -8 -8 -8 -8 -8 -8 -8 -8 -8 -8 -8 -8
-8 -8 -9 -8 -8 -8 -9 -9 -9 -9 -9 -10 -10 -10 -10 -10 -10 -10 -10 -10 -10 -10 -10 -10 -10 -10 -10 -10 -9 -9 -9 -9 -9 -9 -9 -9 -9 -8 -9 -9 -8 -8 -8 -8
-9 -9 -9 -9 -9 -9 -9 -10 -10 -10 -10 -10 -10 -10 -11 -11 -11 -11 -11 -10 -10 -10 -10 -10 -10 -10 -10 -10 -10 -10 -10 -10 -10 -10 -9 -9 -9 -9 -9 -9 -9 -9 -9 -9
-9 -9 -10 -9 -10 -10 -10 -10 -10 -10 -10 -10 -11 -11 -11 -11 -11 -11 -11 -11 -11 -11 -11 -11 -11 -10 -10 -10 -10 -10 -10 -10 -10 -10 -10 -10 -10 -10 -10 -10 -9 -9 -9 -9
-10 -10 -10 -10 -10 -10 -11 -11 -11 -11 -11 -11 -11 -11 -11 -11 -11 -11 -11 -11 -11 -11 -11 -11 -11 -11 -11 -11 -11 -11 -11 -11 -11 -10 -11 -11 -10 -10 -10 -10 -10 -10 -10 -9
-10 -10 -10 -10 -11 -11 -11 -11 -11 -12 -12 -11 -11 -11 -11 -12 -12 -12 -12 -12 -12 -12 -12 -12 -11 -11 -11 -11 -11 -11 -11 -11 -11 -11 -11 -11 -11 -11 -11 -11 -11 -11 -11 -10
-11 -11 -11 -11 -11 -11 -12 -12 -12 -12 -12 -12 -12 -12 -12 -12 -12 -12 -12 -12 -12 -12 -12 -12 -12 -12 -12 -12 -12 -11 -11 -12 -12 -11 -11 -12 -12 -11 -11 -11 -11 -11 -11 -11
-11 -11 -11 -11 -12 -12 -12 -12 -12 -12 -12 -12 -12 -12 -12 -12 -12 -12 -12 -12 -12 -12 -12 -12 -12 -12 -12 -12 -12 -12 -12 -12 -12 -12 -12 -12 -12 -12 -12 -12 -12 -12 -12 -12
-11 -11 -12 -12 -12 -12 -12 -12 -12 -12 -13 -13 -13 -13 -13 -13 -13 -13 -13 -13 -13 -12 -12 -13 -13 -12 -12 -12 -12 -12 -13 -13 -13 -13 -13 -13 -12 -12 -12 -12 -12 -12 -12 -12
-11 -12 -12 -12 -12 -12 -12 -12 -13 -13 -13 -13 -13 -13 -13 -13 -13 -13 -13 -13 -13 -13 -13 -13 -13 -13 -13 -13 -13 -13 -13 -13 -13 -13 -13 -13 -13 -13 -13 -13 -13 -13 -13 -13
-12 -12 -12 -12 -12 -12 -13 -13 -13 -13 -13 -13 -14 -14 -14 -14 -14 -14 -14 -13 -13 -14 -13 -13 -13 -13 -13 -13 -13 -13 -13 -13 -13 -13 -13 -13 -13 -13 -13 -13 -13 -13 -13 -13
-12 -12 -12 -12 -13 -13 -13 -13 -13 -13 -14 -14 -14 -14 -14 -14 -14 -14 -14 -14 -14 -14 -14 -14 -14 -14 -14 -14 -14 -14 -14 -14 -14 -14 -14 -14 -14 -14 -14 -14 -14 -14 -14 -14
-12 -12 -12 -13 -13 -13 -13 -13 -14 -14 -14 -14 -14 -14 -14 -14 -14 -14 -14 -14 -14 -14 -14 -14 -14 -14 -14 -14 -14 -14 -14 -14 -14 -14 -14 -14 -14 -14 -14 -14 -14 -14 -14 -14
-12 -13 -13 -13 -13 -13 -13 -14 -14 -14 -14 -14 -14 -15 -15 -15 -14 -15 -15 -14 -15 -15 -14 -14 -14 -14 -14 -14 -14 -14 -14 -14 -14 -14 -15 -15 -15 -15 -15 -15 -15 -14 -14 -14
-13 -13 -13 -13 -13 -14 -14 -14 -14 -14 -14 -14 -14 -15 -15 -15 -15 -15 -15 -15 -15 -15 -15 -15 -15 -15 -15 -14 -14 -14 -14 -15 -15 -15 -15 -15 -15 -15 -15 -15 -15 -15 -15 -15
-13 -13 -13 -14 -14 -14 -14 -14 -14 -14 -14 -14 -14 -15 -15 -15 -15 -15 -15 -15 -15 -15 -15 -15 -15 -15 -15 -15 -15 -15 -15 -15 -15 -15 -15 -15 -15 -15 -15 -15 -15 -15 -15 -15
-13 -13 -14 -14 -14 -14 -14 -15 -15 -15 -15 -15 -15 -15 -15 -15 -15 -15 -15 -15 -15 -15 -15 -15 -15 -15 -15 -15 -15 -15 -15 -15 -15 -15 -15 -15 -15 -15 -15 -15 -15 -15 -15 -15
Wind_Speed
8 6 3 5 7 6 9 8 9 9 9 11 8 7 7 6 7 7 7 8 8 8 7 8 8 8 7 6 6 5 4 4 5 5 4 4 4 4 5 6 6 6 7 7
5 4 4 7 9 9 10 8 9 10 11 8 6 4 5 7 6 7 8 9 10 9 9 9 8 8 8 7 7 5 4 4 5 4 4 4 4 4 4 5 5 5 6 7
5 4 4 7 7 6 4 4 5 7 8 6 7 7 7 6 6 7 8 9 10 10 9 9 9 8 7 7 7 5 5 4 4 4 4 4 4 4 4 4 4 5 5 5
3 4 5 5 1 2 4 4 4 5 6 6 6 7 6 4 4 6 8 8 9 9 10 9 8 8 7 7 6 6 5 5 5 4 5 5 4 4 4 3 3 3 4 4
1 3 7 5 3 1 3 4 2 4 7 6 6 6 4 3 3 5 7 7 7 8 8 8 8 8 7 7 6 6 6 6 5 5 5 5 5 4 4 3 3 3 3 3
2 2 5 4 4 3 1 4 4 3 6 6 5 5 6 6 7 8 8 7 7 8 8 8 8 7 7 7 7 7 7 7 6 5 4 4 5 4 4 3 3 3 3 3
3 5 6 4 4 2 1 5 6 4 4 4 3 4 6 7 8 7 7 7 7 7 7 8 8 7 7 7 8 8 7 7 6 6 5 4 4 4 4 4 3 3 3 3
2 3 6 2 2 1 4 5 5 4 4 4 5 5 6 6 7 7 7 7 7 7 8 8 7 7 7 8 9 8 7 7 7 7 5 5 4 4 4 3 3 3 3 4
5 5 3 1 2 3 4 5 5 5 5 4 5 5 6 5 6 6 6 7 6 6 8 8 7 7 7 9 9 8 8 8 7 7 6 6 5 4 4 3 3 3 3 3
4 5 5 4 4 5 5 6 6 6 6 4 5 6 6 5 5 5 6 6 6 6 7 8 8 8 7 8 8 7 7 7 7 7 7 6 5 4 4 3 3 3 3 3
4 6 7 4 5 6 7 6 6 6 4 4 4 5 5 5 5 5 6 6 5 6 7 8 8 8 8 8 7 7 7 7 7 6 6 6 6 5 5 4 4 4 3 2
4 5 5 7 7 7 7 7 7 6 6 5 4 4 5 5 5 5 6 6 6 6 7 8 8 8 8 8 7 6 6 6 5 5 5 5 5 6 8 7 8 9 8 6
4 5 5 7 7 6 6 6 6 5 5 5 5 4 4 4 5 5 6 6 6 6 7 7 7 7 8 8 7 6 6 5 4 4 4 4 5 5 6 7 9 9 10 9
5 4 5 5 6 6 6 6 5 5 5 4 4 4 4 4 5 5 5 6 6 6 6 6 6 7 7 7 7 6 6 6 6 4 4 4 4 4 4 5 6 6 8 10
6 4 5 5 5 6 6 5 6 6 6 6 5 5 5 5 5 6 5 5 5 5 6 6 7 8 8 7 6 6 5 4 4 4 4 4 4 4 4 4 4 5 5 7
7 6 4 4 5 6 6 6 5 6 6 6 6 6 5 5 5 5 5 5 5 6 6 6 7 7 7 6 6 5 5 7 7 5 4 4 4 4 4 4 4 4 5 6
5 6 6 6 6 6 6 5 5 5 6 6 6 6 5 5 5 6 6 5 4 5 5 5 6 6 6 5 5 4 4 5 7 5 4 4 4 4 4 4 4 4 4 6
3 4 4 4 5 6 6 6 5 5 5 5 5 5 5 5 6 6 6 6 5 5 5 5 6 5 5 5 4 3 3 4 4 4 4 4 4 4 4 4 4 4 5 5
4 4 4 4 4 4 4 5 5 5 5 5 5 5 5 5 5 6 6 5 6 6 7 7 9 6 5 6 6 3 3 4 4 4 4 5 5 4 4 4 4 4 4 5
5 5 5 5 5 4 4 5 5 5 5 4 4 5 5 6 6 5 5 4 4 5 6 7 6 5 5 5 6 3 3 3 4 4 4 4 4 4 4 4 5 5 5 4
6 6 6 5 5 5 4 4 4 5 5 5 4 5 5 6 6 5 4 5 6 6 6 8 5 4 4 5 5 3 3 3 3 3 4 4 4 4 4 4 5 5 5 5
5 5 6 5 5 6 5 4 4 4 5 5 5 5 5 6 6 5 4 4 6 9 7 4 4 6 7 6 3 3 3 3 3 3 3 3 4 4 4 5 5 5 5 5
4 5 5 5 5 5 5 5 4 4 4 5 5 5 5 5 5 4 6 5 5 9 7 4 7 9 9 5 3 3 3 3 3 3 3 4 4 4 4 5 5 5 5 5
4 5 5 5 4 4 5 5 5 4 4 5 5 5 5 5 4 4 4 8 10 10 6 7 10 10 8 4 3 3 3 4 4 4 4 4 4 4 4 5 5 5 5 6
4 4 4 4 4 4 4 5 5 5 5 4 5 5 4 3 4 5 5 6 9 9 6 7 10 10 6 4 3 3 4 4 4 4 4 4 5 5 5 5 5 5 6 6
3 4 4 4 4 4 4 4 4 4 5 5 5 5 5 4 4 5 5 5 7 8 6 5 5 6 4 4 4 4 4 5 5 5 5 5 5 5 5 6 7 6 6 6
3 3 3 4 4 4 4 4 4 5 5 5 6 6 5 5 5 5 5 5 5 5 5 5 4 4 4 4 4 4 4 5 5 5 5 5 5 6 6 7 6 7 7 7
Wind_Direction
259 270 257 253 257 226 213 223 233 257 260 281 298 303 312 320 327 335 339 340 334 328 324 323 326 326 324 319 315 313 301 291 285 285 286 285 273 256 246 240 242 240 239 242
276 260 261 273 268 248 238 239 247 265 276 288 311 325 325 324 328 330 332 334 332 332 330 327 326 326 326 325 324 319 308 303 307 310 305 296 285 271 255 248 248 243 243 244
277 305 312 280 260 231 224 227 219 248 269 309 320 321 314 313 321 319 322 327 330 330 328 326 324 323 322 321 325 326 320 318 320 316 312 309 304 295 278 266 257 253 248 242
290 345 260 249 330 215 223 260 236 252 282 300 296 302 302 299 308 316 323 326 326 327 327 325 326 331 329 328 332 332 332 330 325 322 316 315 309 299 294 285 276 269 263 253
235 273 277 304 334 342 239 278 282 279 300 317 331 326 316 336 334 317 318 319 320 322 321 325 330 333 334 335 338 339 335 331 328 325 321 320 315 311 306 301 295 283 273 266
198 240 259 291 325 317 245 295 339 322 310 320 343 325 307 338 337 331 331 331 331 333 334 336 334 337 343 342 345 340 332 329 330 329 323 319 314 314 315 315 308 300 300 293
229 240 265 293 318 359 71 295 323 318 313 312 283 271 299 322 328 331 332 333 338 340 340 336 336 345 349 348 343 333 333 335 336 336 330 323 325 327 330 333 337 337 331 328
203 233 269 330 61 176 265 308 318 316 314 306 296 303 315 323 327 333 338 341 345 345 342 340 345 355 354 347 337 339 343 345 345 344 342 344 348 346 348 350 349 350 354 349
205 229 288 293 268 293 315 310 311 312 311 308 308 311 320 324 325 331 336 336 340 341 341 344 351 359 352 339 340 347 352 352 351 351 355 357 356 351 353 359 356 350 352 347
263 279 295 296 306 320 320 310 310 311 310 310 304 306 313 318 324 330 334 335 338 345 346 343 345 350 344 339 344 351 352 350 352 357 359 2 1 359 1 357 353 349 347 341
274 301 317 320 332 327 327 330 330 332 326 317 312 312 314 318 323 327 330 332 338 341 338 335 340 345 345 345 348 353 353 352 355 359 359 1 3 4 0 359 352 349 343 329
266 289 289 299 317 330 331 332 332 338 340 338 328 317 322 321 322 326 329 332 337 338 337 335 339 342 343 344 347 351 355 356 355 355 358 1 2 1 4 4 3 6 7 1
281 307 295 298 317 334 334 332 336 339 334 333 338 332 330 326 328 331 332 334 335 333 332 333 339 341 340 342 346 353 353 350 350 352 353 356 359 1 357 0 8 14 13 11
311 318 308 315 323 336 341 340 345 349 348 343 341 343 341 336 335 337 335 331 330 333 334 336 341 340 337 340 346 350 351 352 352 348 347 351 354 352 353 358 360 359 359 5
330 318 290 307 328 339 344 350 356 352 352 352 350 346 344 342 338 333 331 332 336 340 340 343 344 339 339 343 349 349 350 349 347 346 348 352 352 351 354 359 359 353 355 0
324 328 324 329 334 338 344 348 347 340 342 343 346 344 342 339 335 335 338 344 345 339 336 337 335 331 337 347 350 350 348 350 352 349 351 354 354 356 358 358 357 357 358 354
331 330 334 333 334 334 333 331 327 326 332 336 337 338 343 347 346 345 344 346 340 329 327 328 326 330 341 346 346 343 342 344 351 352 352 348 348 352 353 354 352 350 349 348
288 290 296 301 310 320 325 329 329 330 331 329 334 343 349 347 339 333 332 336 341 341 337 331 331 339 342 341 339 335 337 340 344 345 343 346 347 347 350 352 351 347 344 346
338 335 334 329 321 318 321 325 326 329 331 336 341 341 337 332 326 326 332 341 343 338 332 333 342 349 340 337 345 339 341 342 344 344 344 347 352 353 352 348 345 343 342 344
352 351 349 345 344 339 331 330 331 333 335 339 340 339 338 335 333 332 336 332 316 307 312 323 333 333 332 335 346 345 344 343 344 343 342 343 342 343 343 342 341 339 338 338
345 345 345 344 341 342 338 334 333 332 335 341 337 327 323 324 328 330 333 327 322 322 328 334 337 328 330 338 341 348 347 343 339 336 335 335 335 335 333 332 332 332 332 331
335 336 335 337 340 338 338 336 333 331 334 338 334 327 325 325 328 326 314 301 313 327 335 328 326 332 342 345 348 348 343 340 335 332 330 329 326 324 323 321 320 320 321 321
327 329 331 333 330 325 329 334 333 333 329 328 325 322 317 313 316 317 316 316 317 325 333 324 328 334 340 352 354 346 338 332 326 322 318 315 312 309 309 311 311 312 312 313
330 332 331 330 330 334 335 334 333 329 320 315 315 313 312 315 317 306 294 314 326 326 328 325 332 334 339 349 343 335 328 322 317 313 312 310 307 305 304 303 304 306 306 304
324 324 328 334 334 328 323 325 329 330 329 326 324 323 319 309 301 309 314 317 322 327 328 328 331 332 338 337 331 322 316 309 307 311 309 308 306 304 302 300 299 300 300 298
320 318 314 312 313 317 322 324 325 325 327 326 327 326 323 320 313 312 315 317 318 324 327 323 323 324 328 326 321 316 312 310 312 311 305 302 300 299 298 299 297 295 294 294
323 324 324 325 327 328 325 321 318 318 320 317 315 318 323 325 325 324 321 320 321 321 319 320 320 320 319 317 316 313 309 306 304 302 300 296 295 293 293 294 295 293 293 291
Height
1498 1495 1496 1496 1494 1494 1495 1491 1489 1481 1479 1473 1472 1471 1469 1466 1464 1462 1459 1457 1455 1452 1449 1446 1444 1441 1439 1437 1436 1434 1433 1432 1431 1431 1430 1430 1431 1431 1432 1433 1434 1435 1436 1437
1497 1493 1495 1492 1487 1487 1487 1486 1485 1481 1478 1472 1472 1470 1467 1465 1463 1461 1458 1456 1453 1450 1447 1445 1442 1439 1437 1434 1433 1431 1430 1429 1428 1427 1427 1427 1427 1427 1428 1429 1429 1430 1431 1432
1496 1494 1490 1488 1483 1482 1483 1482 1482 1480 1476 1472 1471 1468 1466 1464 1462 1460 1458 1455 1452 1449 1446 1443 1441 1438 1435 1433 1431 1429 1428 1427 1426 1425 1424 1424 1424 1424 1424 1424 1425 1426 1426 1427
1498 1496 1491 1482 1481 1480 1480 1480 1479 1477 1474 1472 1470 1467 1465 1463 1461 1459 1457 1454 1451 1448 1445 1443 1440 1437 1435 1432 1429 1427 1425 1424 1423 1422 1421 1421 1421 1420 1420 1420 1420 1420 1421 1421
1501 1500 1490 1482 1481 1482 1482 1478 1476 1476 1473 1471 1469 1465 1462 1462 1461 1459 1456 1454 1450 1447 1445 1441 1439 1436 1433 1430 1428 1426 1424 1423 1422 1420 1419 1419 1418 1417 1417 1416 1416 1416 1416 1416
1501 1498 1493 1485 1482 1480 1481 1478 1475 1474 1472 1470 1468 1468 1463 1461 1459 1457 1454 1452 1449 1446 1443 1440 1438 1435 1432 1429 1427 1425 1423 1421 1420 1419 1418 1416 1415 1415 1414 1413 1412 1412 1412 1412
1501 1500 1490 1485 1482 1481 1483 1479 1475 1473 1471 1470 1469 1468 1464 1461 1458 1455 1453 1450 1447 1445 1442 1440 1437 1434 1431 1428 1426 1424 1422 1421 1419 1417 1416 1415 1414 1413 1412 1411 1409 1408 1408 1408
1501 1501 1492 1484 1482 1484 1481 1476 1474 1472 1470 1468 1466 1464 1462 1459 1457 1454 1451 1448 1446 1443 1441 1439 1437 1433 1430 1427 1426 1424 1422 1420 1418 1416 1415 1413 1412 1411 1410 1408 1407 1406 1406 1406
1496 1492 1485 1482 1482 1480 1478 1476 1473 1471 1468 1467 1464 1462 1460 1457 1455 1453 1450 1448 1445 1443 1440 1438 1436 1433 1430 1428 1426 1423 1421 1419 1417 1415 1414 1412 1411 1409 1408 1407 1406 1405 1404 1404
1492 1485 1483 1482 1480 1478 1476 1474 1472 1470 1467 1464 1462 1460 1458 1456 1453 1451 1449 1447 1445 1442 1439 1437 1435 1433 1431 1428 1425 1423 1420 1418 1416 1414 1413 1412 1410 1409 1408 1406 1405 1404 1404 1403
1490 1485 1482 1479 1479 1477 1474 1472 1469 1467 1465 1463 1460 1458 1456 1454 1452 1450 1448 1446 1444 1442 1439 1437 1435 1433 1430 1428 1425 1423 1420 1418 1416 1414 1413 1411 1410 1409 1407 1407 1406 1405 1404 1403
1490 1486 1485 1481 1478 1476 1473 1470 1468 1465 1462 1461 1459 1456 1454 1452 1451 1449 1447 1445 1443 1441 1439 1437 1435 1432 1430 1428 1425 1423 1420 1418 1416 1415 1413 1411 1410 1409 1408 1407 1406 1405 1404 1403
1488 1484 1482 1479 1477 1474 1471 1469 1466 1464 1461 1459 1457 1455 1453 1451 1449 1448 1446 1444 1442 1440 1438 1436 1434 1432 1430 1428 1426 1423 1421 1419 1417 1416 1414 1412 1410 1408 1407 1407 1406 1404 1403 1402
1485 1483 1479 1477 1475 1472 1470 1467 1465 1462 1460 1458 1456 1454 1452 1450 1448 1447 1445 1443 1441 1440 1438 1436 1433 1431 1430 1428 1425 1423 1421 1420 1418 1416 1414 1412 1411 1409 1408 1406 1404 1403 1403 1402
1483 1481 1479 1476 1473 1471 1469 1466 1463 1461 1459 1457 1455 1453 1451 1449 1447 1446 1444 1442 1441 1439 1437 1435 1433 1431 1429 1427 1425 1423 1421 1420 1418 1416 1415 1413 1411 1410 1408 1406 1405 1403 1402 1401
1481 1479 1477 1474 1472 1470 1467 1465 1463 1460 1458 1456 1454 1452 1451 1449 1447 1445 1443 1441 1439 1437 1436 1434 1432 1431 1429 1427 1425 1423 1421 1420 1418 1416 1415 1413 1412 1410 1408 1407 1405 1403 1402 1401
1479 1477 1475 1472 1471 1469 1467 1465 1463 1460 1458 1456 1454 1452 1450 1448 1446 1444 1442 1441 1439 1437 1435 1433 1432 1430 1428 1426 1425 1423 1421 1419 1418 1416 1415 1414 1412 1410 1409 1407 1406 1404 1403 1402
1480 1477 1475 1473 1470 1468 1466 1464 1462 1460 1458 1456 1453 1451 1449 1447 1445 1443 1441 1440 1438 1436 1435 1433 1431 1429 1427 1426 1424 1422 1421 1419 1418 1416 1415 1414 1412 1411 1409 1407 1406 1404 1403 1402
1478 1476 1474 1472 1470 1468 1465 1463 1461 1459 1457 1455 1453 1450 1448 1446 1444 1442 1440 1438 1436 1434 1433 1431 1430 1428 1426 1425 1423 1422 1420 1419 1417 1416 1414 1413 1412 1410 1409 1407 1405 1404 1402 1401
1477 1475 1473 1471 1469 1467 1464 1462 1460 1458 1456 1454 1452 1449 1447 1446 1444 1442 1440 1438 1436 1434 1432 1430 1429 1427 1425 1424 1422 1421 1419 1418 1416 1415 1413 1412 1410 1409 1408 1406 1405 1403 1401 1400
1476 1474 1472 1470 1468 1466 1464 1461 1459 1457 1455 1453 1451 1449 1446 1445 1443 1441 1438 1436 1435 1433 1431 1430 1428 1426 1424 1422 1421 1419 1418 1416 1415 1414 1412 1410 1409 1408 1406 1405 1404 1402 1401 1399
1475 1473 1471 1469 1467 1465 1463 1461 1459 1456 1454 1452 1450 1448 1446 1443 1441 1439 1438 1436 1434 1432 1430 1428 1426 1425 1423 1421 1419 1418 1416 1415 1413 1412 1410 1409 1407 1406 1405 1403 1402 1400 1399 1398
1475 1473 1470 1468 1466 1464 1462 1460 1457 1455 1453 1451 1449 1447 1444 1442 1440 1438 1436 1435 1432 1431 1429 1426 1425 1423 1421 1419 1418 1416 1414 1413 1411 1410 1408 1407 1405 1404 1402 1401 1400 1398 1396 1395
1473 1471 1469 1467 1465 1462 1460 1458 1456 1454 1452 1450 1448 1445 1443 1441 1439 1437 1435 1433 1431 1429 1427 1425 1423 1421 1419 1417 1415 1414 1412 1410 1409 1407 1406 1404 1403 1401 1400 1398 1396 1395 1393 1392
1472 1470 1468 1465 1463 1461 1459 1457 1455 1453 1450 1448 1446 1444 1442 1440 1438 1435 1433 1431 1429 1427 1425 1423 1421 1419 1417 1415 1413 1411 1409 1408 1406 1404 1403 1401 1400 1398 1396 1395 1393 1391 1390 1388
1470 1468 1466 1464 1463 1460 1458 1456 1453 1451 1449 1446 1445 1443 1441 1438 1436 1434 1431 1429 1427 1425 1423 1420 1418 1416 1414 1412 1410 1408 1407 1405 1403 1401 1400 1398 1396 1395 1393 1391 1390 1388 1386 1384
1468 1467 1465 1463 1461 1459 1457 1454 1452 1450 1447 1445 1443 1441 1439 1436 1434 1432 1429 1427 1425 1423 1420 1418 1416 1414 1412 1410 1408 1406 1404 1402 1400 1398 1396 1395 1393 1391 1389 1387 1385 1384 1382 1380